Flag for Austria Weather past 2 weeks in Klagenfurt, Carinthia, Austria

Now
61 °F

Partly cloudy.


Feels Like: 61 °F
Forecast: 53 / 67 °F
Wind: 3 mph from North

Location: Klagenfurt-Flughafen

Current Time: Aug 22, 2014 at 12:39:19 AM

Latest Report: Aug 21, 2014 at 11:50 PM


Visibility: N/A

Pressure: 30.07 "Hg

Humidity: 83%

Dew point: 55 °F

Location of KlagenfurtLocation

Historic Weather in Klagenfurt — Graph

°F

Klagenfurt temperature yesterday

Maximum temperature yesterday: 72 °F (at 3:50 PM)
Minimum temperature yesterday: 54 °F (at 4:20 AM)
Average temperature yesterday: 62 °F

Past Weeks' High & Low Weather Summary

 TemperatureHumidityPressure
High86 °F (Aug 9, 4:50 PM)100% (Aug 7, 4:20 AM)30.15 "Hg (Aug 7, 4:20 AM)
Low48 °F (Aug 17, 6:20 AM)37% (Aug 7, 5:50 PM)29.68 "Hg (Aug 13, 4:50 PM)
Average64 °F79%29.98 "Hg
* Reported Aug 6 11:20 PM — Aug 21 11:20 PM, Klagenfurt, Weather by CustomWeather, © 2014

Note: Actual official high and low records may vary slightly from our data, if they occured in-between our weather recording intervals... More about our weather records

Advertising

Klagenfurt weather history for previous 24 hours

 ConditionsComfort  
Time TempWeatherWind HumidityBarometerVisibility
11:20 PM
Aug 21
61 °FPartly cloudy.2 mph83%30.07 "HgN/A
10:50 PM61 °FPartly cloudy.1 mph83%30.07 "HgN/A
10:20 PM61 °FSprinkles. Partly cloudy.2 mph83%30.07 "HgN/A
9:50 PM63 °FSprinkles. Passing clouds.2 mph77%30.07 "HgN/A
9:20 PM63 °FSprinkles. Passing clouds.3 mph73%30.04 "HgN/A
8:50 PM63 °FPartly sunny.2 mph73%30.04 "HgN/A
8:20 PM63 °FPartly sunny.5 mph73%30.01 "HgN/A
7:50 PM64 °FPartly sunny.5 mph68%30.01 "HgN/A
7:20 PM66 °FPartly sunny.6 mph64%30.01 "HgN/A
6:50 PM68 °FScattered clouds.6 mph60%30.01 "HgN/A
6:20 PM68 °FScattered clouds.7 mph64%30.01 "HgN/A
5:50 PM68 °FScattered clouds.5 mph56%30.01 "HgN/A
5:20 PM70 °FScattered clouds.6 mph53%30.01 "HgN/A
4:50 PM70 °FScattered clouds.6 mph50%30.01 "HgN/A
4:20 PM70 °FScattered clouds.5 mph46%30.01 "HgN/A
3:50 PM72 °FPassing clouds.5 mph50%30.01 "HgN/A
3:20 PM70 °FPassing clouds.6 mph53%30.01 "HgN/A
2:50 PM70 °FScattered clouds.5 mph53%30.01 "HgN/A
2:20 PM70 °FScattered clouds.6 mph50%30.04 "HgN/A
1:50 PM68 °FScattered clouds.3 mph53%30.04 "HgN/A
1:20 PM68 °FScattered clouds.2 mph53%30.04 "HgN/A
12:50 PM66 °FScattered clouds.6 mph56%30.04 "HgN/A
12:20 PM66 °FPassing clouds.2 mph56%30.04 "HgN/A
11:50 AM66 °FPassing clouds.2 mph56%30.04 "HgN/A
11:20 AM64 °FPassing clouds.2 mph60%30.04 "HgN/A
10:50 AM64 °FPassing clouds.2 mph64%30.04 "HgN/A
10:20 AM63 °FPassing clouds.3 mph68%30.04 "HgN/A
9:50 AM61 °FPassing clouds.3 mph72%30.04 "HgN/A
9:20 AM59 °FPassing clouds.2 mph77%30.04 "HgN/A
8:50 AM59 °FScattered clouds.3 mph82%30.04 "HgN/A
8:20 AM57 °FPartly sunny.2 mph88%30.04 "HgN/A
7:50 AM55 °FBroken clouds.2 mph94%30.04 "HgN/A
7:20 AM55 °FPartly sunny.5 mph94%30.01 "HgN/A
6:50 AM55 °FPassing clouds.5 mph94%30.01 "HgN/A
6:20 AM55 °FPartly cloudy.3 mph94%30.01 "HgN/A
5:50 AM55 °FPartly cloudy.2 mph94%30.01 "HgN/A
5:20 AM55 °FSprinkles. Partly cloudy.3 mph88%30.01 "Hg5 mi
4:50 AM55 °FSprinkles. Partly cloudy.3 mph94%30.01 "Hg5 mi
4:20 AM54 °FThunderstorms. Passing clouds.2 mph100%30.01 "Hg4 mi
3:50 AM55 °FThunderstorms. Passing clouds.2 mph88%29.98 "Hg4 mi
3:20 AM55 °FHeavy rain. Passing clouds.9 mph88%29.98 "Hg4 mi
2:50 AM57 °FHeavy rain. Passing clouds.10 mph88%29.98 "HgN/A
2:20 AM59 °FHeavy rain. Passing clouds.7 mph94%29.95 "HgN/A
1:50 AM59 °FRain showers. Partly cloudy.6 mph100%29.95 "Hg6 mi
1:20 AM59 °FHail. Passing clouds.6 mph100%29.95 "Hg3 mi
12:50 AM61 °FSprinkles. Passing clouds.3 mph88%29.95 "HgN/A
12:20 AM61 °FLight rain. Passing clouds.3 mph88%29.95 "HgN/A
Weather by CustomWeather, © 2014

See weather overviewHow to use our weather pages